| time (UTC) | temp F | wind direction | speed MPH | gust MPH | rain 1hr in | rain 24hr in | rain mn in | humidity % | barometer mb |
| 20260504000013 | 66 | 288 | 5.0 | 11.0 | 0.00 | 0.00 | 0.00 | 26 | 1002.4 |
| 20260503234554 | 67 | 246 | 10.0 | 17.0 | 0.00 | 0.00 | 0.00 | 26 | 1002.4 |
| 20260503233040 | 67 | 254 | 9.0 | 14.0 | 0.00 | 0.00 | 0.00 | 27 | 1002.3 |
| 20260503231534 | 68 | 292 | 8.0 | 15.0 | 0.00 | 0.00 | 0.00 | 25 | 1002.4 |
| 20260503230131 | 68 | 279 | 14.0 | 18.0 | 0.00 | 0.00 | 0.00 | 26 | 1002.4 |
| 20260503224512 | 68 | 268 | 7.0 | 15.0 | 0.00 | 0.00 | 0.00 | 28 | 1002.5 |
| 20260503223054 | 68 | 344 | 8.0 | 14.0 | 0.00 | 0.00 | 0.00 | 26 | 1002.5 |
| 20260503221553 | 68 | 275 | 7.0 | 17.0 | 0.00 | 0.00 | 0.00 | 30 | 1002.5 |
| 20260503220039 | 68 | 292 | 10.0 | 16.0 | 0.00 | 0.00 | 0.00 | 29 | 1002.5 |
| 20260503214518 | 69 | 269 | 11.0 | 20.0 | 0.00 | 0.00 | 0.00 | 30 | 1002.5 |
| 20260503213012 | 69 | 266 | 7.0 | 15.0 | 0.00 | 0.00 | 0.00 | 29 | 1002.6 |
| 20260503211504 | 69 | 293 | 8.0 | 17.0 | 0.00 | 0.00 | 0.00 | 25 | 1002.7 |
| 20260503210005 | 69 | 348 | 7.0 | 20.0 | 0.00 | 0.00 | 0.00 | 25 | 1002.7 |
| 20260503204552 | 69 | 302 | 5.0 | 16.0 | 0.00 | 0.00 | 0.00 | 25 | 1002.8 |
| 20260503203037 | 68 | 278 | 12.0 | 22.0 | 0.00 | 0.00 | 0.00 | 25 | 1003.1 |
| 20260503201605 | 68 | 323 | 6.0 | 15.0 | 0.00 | 0.00 | 0.00 | 28 | 1003.2 |
| 20260503200126 | 68 | 290 | 7.0 | 19.0 | 0.00 | 0.00 | 0.00 | 26 | 1003.5 |
| 20260503194523 | 68 | 309 | 9.0 | 19.0 | 0.00 | 0.00 | 0.00 | 35 | 1003.5 |
| 20260503193159 | 68 | 289 | 7.0 | 19.0 | 0.00 | 0.00 | 0.00 | 36 | 1003.5 |
| 20260503191527 | 68 | 291 | 10.0 | 21.0 | 0.00 | 0.00 | 0.00 | 39 | 1003.4 |
| 20260503190049 | 68 | 271 | 13.0 | 21.0 | 0.00 | 0.00 | 0.00 | 39 | 1003.4 |
| 20260503184540 | 68 | 316 | 8.0 | 16.0 | 0.00 | 0.00 | 0.00 | 38 | 1003.6 |
| 20260503183005 | 67 | 296 | 7.0 | 19.0 | 0.00 | 0.00 | 0.00 | 39 | 1003.6 |
| 20260503181524 | 67 | 273 | 11.0 | 21.0 | 0.00 | 0.00 | 0.00 | 37 | 1003.8 |
| 20260503180118 | 67 | 337 | 7.0 | 16.0 | 0.00 | 0.00 | 0.00 | 38 | 1003.8 |
| 20260503174554 | 66 | 298 | 9.0 | 17.0 | 0.00 | 0.00 | 0.00 | 39 | 1003.8 |
| 20260503173042 | 66 | 276 | 8.0 | 17.0 | 0.00 | 0.00 | 0.00 | 42 | 1004.0 |
| 20260503171536 | 66 | 256 | 7.0 | 20.0 | 0.00 | 0.00 | 0.00 | 43 | 1004.1 |
| 20260503130135 | 55 | 223 | 5.0 | 10.0 | 0.00 | 0.00 | 0.00 | 55 | 1004.1 |
| 20260503120138 | 52 | 216 | 3.0 | 8.0 | 0.00 | 0.00 | 0.00 | 59 | 1003.8 |
| 20260503081611 | 51 | 207 | 1.0 | 4.0 | 0.00 | 0.00 | 0.00 | 59 | 1005.1 |
| 20260503071535 | 52 | 189 | 1.0 | 6.0 | 0.00 | 0.00 | 0.00 | 62 | 1006.3 |
| 20260503060104 | 53 | 200 | 0.0 | 0.0 | 0.00 | 0.00 | 0.00 | 61 | 1007.4 |
| 20260503054538 | 53 | 200 | 0.0 | 0.0 | 0.00 | 0.00 | 0.00 | 59 | 1007.6 |
| 20260503053022 | 53 | 200 | 0.0 | 0.0 | 0.00 | 0.00 | 0.00 | 58 | 1007.6 |
| 20260503051512 | 54 | 200 | 0.0 | 4.0 | 0.00 | 0.00 | 0.00 | 58 | 1007.8 |
| 20260503050017 | 54 | 195 | 1.0 | 7.0 | 0.00 | 0.00 | 0.00 | 59 | 1007.9 |
| 20260503044507 | 54 | 238 | 0.0 | 3.0 | 0.00 | 0.00 | 0.00 | 57 | 1008.4 |
| 20260503043104 | 55 | 238 | 0.0 | 4.0 | 0.00 | 0.00 | 0.00 | 56 | 1008.4 |
| 20260503041655 | 55 | 238 | 1.0 | 3.0 | 0.00 | 0.00 | 0.00 | 55 | 1008.7 |
| 20260503040038 | 56 | 238 | 1.0 | 4.0 | 0.00 | 0.00 | 0.00 | 53 | 1008.8 |
| 20260503034532 | 57 | 239 | 2.0 | 7.0 | 0.00 | 0.00 | 0.00 | 51 | 1009.1 |
| 20260503033016 | 57 | 241 | 4.0 | 10.0 | 0.00 | 0.00 | 0.00 | 50 | 1009.4 |
| 20260503031505 | 57 | 219 | 4.0 | 9.0 | 0.00 | 0.00 | 0.00 | 49 | 1009.6 |
| 20260503030059 | 57 | 220 | 4.0 | 8.0 | 0.00 | 0.00 | 0.00 | 49 | 1009.8 |
| 20260503024554 | 58 | 223 | 3.0 | 9.0 | 0.00 | 0.00 | 0.00 | 48 | 1009.9 |
| 20260503023043 | 58 | 214 | 4.0 | 9.0 | 0.00 | 0.00 | 0.00 | 49 | 1010.0 |
| 20260503021552 | 57 | 221 | 6.0 | 11.0 | 0.00 | 0.00 | 0.00 | 49 | 1010.2 |
| 20260503020125 | 58 | 236 | 3.0 | 13.0 | 0.00 | 0.00 | 0.00 | 47 | 1010.2 |
| 20260503014543 | 58 | 241 | 11.0 | 20.0 | 0.00 | 0.00 | 0.00 | 49 | 1010.5 |
| 20260503013003 | 57 | 237 | 2.0 | 5.0 | 0.00 | 0.00 | 0.00 | 52 | 1010.1 |
| 20260503011655 | 58 | 237 | 1.0 | 3.0 | 0.00 | 0.00 | 0.00 | 46 | 1010.1 |
| 20260503010044 | 59 | 237 | 3.0 | 8.0 | 0.00 | 0.00 | 0.00 | 43 | 1010.0 |
| 20260503004616 | 60 | 250 | 4.0 | 8.0 | 0.00 | 0.00 | 0.00 | 42 | 1010.1 |
| 20260503003120 | 60 | 229 | 6.0 | 14.0 | 0.00 | 0.00 | 0.00 | 42 | 1010.3 |
| 20260503001502 | 60 | 242 | 8.0 | 14.0 | 0.00 | 0.00 | 0.00 | 41 | 1010.5 |
| 20260503000113 | 60 | 237 | 6.0 | 9.0 | 0.00 | 0.00 | 0.00 | 40 | 1010.5 |